Location: Étouvelles
(49.5207°N, 3.5808°E)
Time: 15:03:45
(UTC+00:00)

IGS 5A - Pass Details

Date: 03 February 2023
Orbit: 578 x 583 km, 97.5° (Epoch: 10 March)

Event Time Altitude Azimuth Distance (km) Brightness Sun altitude
Exits shadow 18:20:10 29° 90° (E) 1,086 4.2 -15.7°
Maximum altitude 18:21:00 31° 67° (ENE) 1,025 4.1 -15.9°
Drops below altitude 10° 18:24:40 10° 5° (N) 1,910 6.0 -16.5°
Sets 18:26:59 0° 355° (N) 2,814 6.9 -16.8°
